Tracking 30703 objects as of 12-Jun-2025
HD Live streaming from Space Station
objects crossing your sky now

FENGYUN 1C DEB

Track FENGYUN 1C DEB now!
10-day predictions


NORAD ID: 36173
Int'l Code: 1999-025DSW
Perigee: 709.0 km
Apogee: 924.1 km
Inclination: 98.2 °
Period: 101.1 minutes
Semi major axis: 7187 km
RCS: 0.0079 m2 (small)
Launch date: May 10, 1999
Source: People's Republic of China (PRC)
Launch site: Taiyaun Space Center, China (TSC)

Note: This is SATELLITE DEBRIS
Your satellite tracking list
Your tracking list is empty




NASA's NSSDC Master Catalog

Two Line Element Set (TLE):
1 36173U 99025DSW 25151.64553709  .00000976  00000-0  38840-3 0  9996
2 36173  98.1876 121.4793 0149580  41.1841 320.0513 14.24728460563123
Source of the keplerian elements: AFSPC